Location: Titusville
(28.6119°N, 80.8078°W)
Time: 11:17:23
(UTC-04:00)

Hubble Space Telescope - Visible Passes

Search period start: 20 June 2018 00:00
Search period end: 30 June 2018 00:00
Orbit: 537 x 541 km, 28.5° (Epoch: 19 June)

Date Brightness Start Highest point End Pass type
(mag) Time Alt. Az. Time Alt. Az. Time Alt. Az.
20 Jun 1.7 22:08:43 10° W 22:12:25 33° SSW 22:12:25 33° SSW visible
21 Jun 2.0 21:58:33 10° W 22:02:04 27° SSW 22:02:30 26° S visible
22 Jun 2.3 21:48:27 10° WSW 21:51:40 22° SSW 21:52:36 20° S visible
23 Jun 2.7 21:38:30 10° WSW 21:41:15 17° SSW 21:42:44 15° S visible
24 Jun 3.1 21:28:48 10° WSW 21:30:49 13° SSW 21:32:50 10° S visible
